Location: Spondin
(51.8528°N, 111.6118°W)
Time: 18:04:35
(UTC+00:00)

Vanguard 2 Rocket - Pass Details

Date: 03 June 2022
Orbit: 553 x 3323 km, 32.9° (Epoch: 02 July)

Event Time Altitude Azimuth Distance (km) Brightness Sun altitude
Rises 16:48:26 0° 202° (SSW) 6,501 11.3 48.0°
Reaches altitude 10° 16:53:45 10° 190° (S) 5,819 11.3 48.7°
Maximum altitude 17:07:07 25° 145° (SE) 5,093 11.9 50.4°
Drops below altitude 10° 17:20:59 10° 100° (E) 6,096 11.8 52.1°
Sets 17:26:39 0° 89° (E) 6,869 11.8 52.8°
